Regional Weather Roundup
Issued by NWS

Home | Current Version | Previous Version | Text Only | Print | Product List | Glossary On
Versions: 1 2 3 4 5 6 7 8 9 10 11 12 13 14 15 16 17 18 19 20 21 22 23 24 25 26 27 28 29 30 31 32 33 34 35 36 37 38 39 40 41 42 43 44 45 46 47 48 49 50
000
ASUS44 KFWD 200215
RWRTX
NORTH TEXAS HOURLY WEATHER ROUNDUP
NATIONAL WEATHER SERVICE FORT WORTH TX
800 PM CST FRI DEC 19 2014

NOTE: "FAIR" INDICATES FEW OR NO CLOUDS BELOW 12,000 FEET WITH NO
SIGNIFICANT WEATHER AND/OR OBSTRUCTIONS TO VISIBILITY.

TXZ118-119-200300-
DALLAS/FORT WORTH METROPLEX

CITY           SKY/WX    TMP DP  RH WIND       PRES   REMARKS
DFW AIRPORT    CLOUDY    47  44  90 N9        30.18S
DALLAS LOVE    CLOUDY    49  44  83 NE6       30.19R
FTW MEACHAM    CLOUDY    48  43  82 N9        30.20R
DAL-EXECUTIVE  CLOUDY    50  45  83 N6        30.17F
FTW-ALLIANCE   DRIZZLE   46  42  86 N9        30.20R
FTW-SPINKS     CLOUDY    48  45  90 N3        30.20R
ARLINGTON      CLOUDY    49  43  80 N8        30.19R
GRAND PRAIRIE  CLOUDY    48  46  95 N6        30.20S
ADDISON        CLOUDY    48  43  81 N6        30.19S FOG
MESQUITE       CLOUDY    48  45  87 N6        30.19S
LANCASTER      CLOUDY    48  44  86 N6        30.20R
$$

TXZ091>094-102>105-117-120-121-131>134-200300-
NORTH CENTRAL TEXAS

CITY           SKY/WX    TMP DP  RH WIND       PRES   REMARKS
SHRMAN/DENISON CLOUDY    45  44  98 CALM      30.21R
GAINESVILLE    CLOUDY    44  40  87 N5        30.23R
BOWIE          CLOUDY    43  41  92 CALM      30.21R
BRIDGEPORT     CLOUDY    46  43  88 N5        30.23R
DECATUR        CLOUDY    44  41  89 N3        30.21R
DENTON         CLOUDY    46  42  86 N8        30.20R
MCKINNEY       CLOUDY    47  44  90 NE6       30.19R
GREENVILLE     CLOUDY    46  45  93 NE5       30.19S
ROCKWALL       CLOUDY    47  46  96 NE6       30.17S
TERRELL        CLOUDY    50  46  86 NE7       30.19S
WAXAHACHIE     CLOUDY    47  47 100 N6        30.19S FOG
CLEBURNE       CLOUDY    46  46 100 N6        30.20R
GRANBURY       CLOUDY    49  44  83 N3        30.21R
$$

TXZ083>090-098>101-113>116-127>130-139>142-154-155-200300-
WESTERN NORTH TEXAS

CITY           SKY/WX    TMP DP  RH WIND       PRES   REMARKS
WICHITA FALLS  CLOUDY    44  40  85 NE5       30.21R
WF-KICKAPOO    CLOUDY    45  41  85 N7        30.23S
VERNON         CLOUDY    45  38  76 CALM      30.22S
ABILENE        CLOUDY    45  41  86 N6        30.20R
ABILENE-DYESS  CLOUDY    46  38  76 CALM      30.19R
BRECKENRIDGE   CLOUDY    48  41  74 N3        30.20R
GRAHAM         CLOUDY    45  42  88 N5        30.21R
MINERAL WELLS  CLOUDY    47  42  83 N8        30.19R
STEPHENVILLE   CLOUDY    46  42  86 N3        30.21R
COMANCHE       CLOUDY    46  46  99 N6        30.18R
BROWNWOOD      CLOUDY    48  41  76 NE3       30.19R
COLEMAN        CLOUDY    47  44  87 NE7       30.18R
$$

TXZ143>147-156>162-174-175-200300-
CENTRAL TEXAS

CITY           SKY/WX    TMP DP  RH WIND       PRES   REMARKS
WACO           CLOUDY    49  45  86 NW7       30.18S
WACO-TSTC      CLOUDY    48  46  93 N5        30.18R
WACO-MCGREGOR  CLOUDY    48  43  81 N7        30.19R
HILLSBORO      CLOUDY    48  46  91 N6        30.18R FOG
CORSICANA      CLOUDY    49  45  86 NE8       30.18S
MEXIA          CLOUDY    47  46  96 N7        30.16R
HEARNE         CLOUDY    49  47  94 NW13      30.18R
CAMERON        CLOUDY    49  48  95 N9        30.17R
TEMPLE         CLOUDY    46  43  87 N10       30.17R
KILLEEN        DRZL/FOG  46  45  93 N7        30.19R VSB 1/2
KILLEEN-SKYLRK CLOUDY    46  41  81 N8        30.16R
FORT HOOD      CLOUDY    47  46  97 N8        30.18R FOG
GATESVILLE     CLOUDY    46  46 100 N5        30.21R
HAMILTON       CLOUDY    46  46 100 NE6       30.19R
$$

TXZ095>097-106>112-122>126-135>138-148>153-164>167-200300-
EAST TEXAS

CITY           SKY/WX    TMP DP  RH WIND       PRES   REMARKS
PARIS          CLOUDY    45  41  87 E7        30.20F
SULPHUR SPRNGS CLOUDY    46  44  92 NE6       30.21S
MOUNT PLEASANT CLOUDY    46  45  95 NE3       30.21S
MINEOLA        CLOUDY    46  45  93 NE3       30.20S FOG
TYLER          CLOUDY    47  45  93 N7        30.17R FOG
LONGVIEW       CLOUDY    48  44  86 NE7       30.17R
MARSHALL       CLOUDY    48  46  90 NE5       30.19S
ATHENS         CLOUDY    46  45  93 N8        30.17R FOG
PALESTINE      CLOUDY    48  48 100 N7        30.18R FOG
JACKSONVILLE   CLOUDY    48  47  97 NE6       30.16S FOG
HENDERSON      CLOUDY    47  47  97 NE7       30.17S
NACOGDOCHES    CLOUDY    46  45  93 NE5       30.15S
LUFKIN         CLOUDY    52  48  86 N7        30.14R
$$

SUPPLEMENTAL OBSERVATIONS (CENTRAL)

CITY           SKY/WX    TMP DP  RH WIND       PRES   REMARKS
LAKE TEXOMA      N/A     45  39  81 N6          N/A
CADDO GRASSLND   N/A     46  43  87 CALM        N/A
PAT MAYSE LAKE   N/A     45  43  93 E3          N/A
GREENVILLE       N/A     46  41  81 NE8         N/A
CEDAR HILL       N/A     48  45  87 N3          N/A
PALESTINE        N/A     48  46  93 N7          N/A
LAKE LIMESTONE   N/A     48  45  87 VRB12       N/A
MCGREGOR         N/A     48  43  81 N5          N/A
TEMPLE           N/A     48  43  81 N1          N/A
$$

SUPPLEMENTAL OBSERVATIONS (WEST)

CITY           SKY/WX    TMP DP  RH WIND       PRES   REMARKS
MILLERS CREEK    N/A     45  39  81 CALM        N/A
POSSUM KINGDOM   N/A     45  41  87 N5          N/A
LBJ GRASSLAND    N/A     45  39  81 N3          N/A
GRANBURY         N/A     48  43  81 N5          N/A
COMANCHE         N/A     46  45  93 NE5         N/A
HAMBY            N/A     43  37  81 N2          N/A
IVIE RESERVOIR   N/A     48  41  76 NE8         N/A
COLORADO BEND    N/A     46  41  81 NE3         N/A
$$

SUPPLEMENTAL OBSERVATIONS (EAST)

CITY           SKY/WX    TMP DP  RH WIND       PRES   REMARKS
CLARKSVILLE      N/A     45  43  93 E3          N/A
TEXARKANA        N/A     45  41  87 NE3         N/A
LINDEN           N/A     46  41  81 CALM        N/A
CADDO LAKE       N/A     46  43  87 NE2         N/A
GILMER           N/A     46  41  81 NE5         N/A
HENDERSON        N/A     46  41  81 NE9         N/A
LUFKIN           N/A     48  45  87 MISG        N/A
N SABINE NF      N/A     46  43  87 MISG        N/A
S SABINE NF      N/A     48  45  87 N6          N/A
$$

SUPPLEMENTAL OBSERVATIONS ARE A COLLECTION OF AUTOMATED INSTRUMENTS
THAT ARE MAINTAINED BY A VARIETY OF FEDERAL AND STATE AGENCIES.
CERTAIN ELEMENTS...SUCH AS HUMIDITY VALUES AND SUSTAINED WIND
SPEEDS...MAY BE APPROXIMATED.



USA.gov is the U.S. government's official web portal to all federal, state and local government web resources and services.